TimeEST,TemperatureF,Dew PointF,Humidity,Sea Level PressureIn,VisibilityMPH,Wind Direction,Wind SpeedMPH,Gust SpeedMPH,PrecipitationIn,Events,Conditions,WindDirDegrees,DateUTC
12:31 AM,26.6,24.8,93,30.53,10.0,Calm,Calm,-,N/A,,Mostly Cloudy,0,2012-11-17 05:31:00
12:41 AM,28.4,26.6,93,30.53,10.0,Calm,Calm,-,N/A,,Mostly Cloudy,0,2012-11-17 05:41:00
12:55 AM,28.8,27.7,96,30.53,10.0,Calm,Calm,-,N/A,,Mostly Cloudy,0,2012-11-17 05:55:00
1:55 AM,27.9,27.3,98,30.54,10.0,SE,4.6,-,N/A,,Clear,140,2012-11-17 06:55:00
2:55 AM,27.7,27.0,97,30.56,10.0,SSE,4.6,-,N/A,,Clear,150,2012-11-17 07:55:00
3:36 AM,26.6,26.6,100,30.57,10.0,East,3.5,-,N/A,,Mostly Cloudy,100,2012-11-17 08:36:00
3:55 AM,28.0,27.5,98,30.57,10.0,ESE,4.6,-,N/A,,Overcast,120,2012-11-17 08:55:00
4:04 AM,28.4,28.4,100,30.58,10.0,ESE,4.6,-,N/A,,Overcast,120,2012-11-17 09:04:00
4:55 AM,29.3,28.2,96,30.59,10.0,Calm,Calm,-,N/A,,Overcast,0,2012-11-17 09:55:00
5:55 AM,29.8,28.0,93,30.60,10.0,SSE,5.8,-,N/A,,Overcast,160,2012-11-17 10:55:00
6:55 AM,30.0,28.4,94,30.63,10.0,Calm,Calm,-,N/A,,Overcast,0,2012-11-17 11:55:00
7:55 AM,31.1,28.9,92,30.64,10.0,ESE,5.8,-,N/A,,Overcast,120,2012-11-17 12:55:00
8:55 AM,32.2,29.5,90,30.65,10.0,ESE,3.5,-,N/A,,Overcast,120,2012-11-17 13:55:00
9:55 AM,35.1,29.8,81,30.66,10.0,SSE,5.8,-,N/A,,Overcast,150,2012-11-17 14:55:00
10:55 AM,39.2,31.5,74,30.66,10.0,ESE,4.6,-,N/A,,Overcast,120,2012-11-17 15:55:00
11:55 AM,43.0,32.7,67,30.65,10.0,NNW,4.6,-,N/A,,Overcast,340,2012-11-17 16:55:00
12:55 PM,45.1,32.0,60,30.63,10.0,Calm,Calm,-,N/A,,Scattered Clouds,0,2012-11-17 17:55:00
2:55 PM,45.3,31.8,59,30.64,10.0,Calm,Calm,-,N/A,,Clear,0,2012-11-17 19:55:00
3:55 PM,43.7,31.1,61,30.64,10.0,Calm,Calm,-,N/A,,Clear,0,2012-11-17 20:55:00
4:55 PM,37.9,30.9,76,30.65,10.0,Calm,Calm,-,N/A,,Clear,0,2012-11-17 21:55:00
7:55 PM,30.4,29.3,96,30.66,10.0,Calm,Calm,-,N/A,,Clear,0,2012-11-18 00:55:00
8:55 PM,29.5,29.1,99,30.67,10.0,Calm,Calm,-,N/A,,Clear,0,2012-11-18 01:55:00
9:55 PM,30.6,29.8,97,30.67,10.0,SE,8.1,-,N/A,,Overcast,140,2012-11-18 02:55:00
10:55 PM,31.3,29.8,94,30.68,10.0,SSE,6.9,-,N/A,,Overcast,150,2012-11-18 03:55:00
11:55 PM,31.3,29.5,93,30.68,10.0,SE,9.2,-,N/A,,Overcast,140,2012-11-18 04:55:00